sat.trackr.live / text

‹ back to catalog

STARLINK-3683

NORAD 53167 · 2022-083AM

PAYLOAD ACTIVE UNKNOWN

§ Identity

Operator
Country
US
Launch date
2022-07-17
Launch site
AFETR
Launch vehicle
Mass (kg)
RCS (m²)

Purposes: comms

External: N2YO · Heavens-Above · Gunter

§ Orbital elements

Epoch: 2026-09-19T19:11:07.928448Z

Period
93.79 min
Inclination
53.1621°
Eccentricity
0.0001029
Mean motion
15.35401394 rev/d
Perigee alt
459.0 km
Apogee alt
460.4 km
Semi-major
6,837.9 km
B*
2.8737e-5
RAAN
351.5805°
Arg perigee
82.9709°
Mean anomaly
277.1411°
Rev number
23,094

§ Raw data

STARLINK-36831 53167U 22083AM  26262.79939732  .00000622  00000+0  28737-4 0  99942 53167  53.1621 351.5805 0001029  82.9709 277.1411 15.35401394230942

JSON: /api/v1/satellites/53167 · /tle

For live sub-satellite position, see the globe view (requires WebGL).

§ Visibility from observer

Set your observer location to see the next 7 days of passes ≥ 10°. The values pass through the URL so the page stays shareable.

No JS? Fill the form by hand. The geolocation button needs JavaScript.